Weather observations for the past three days for
Goodyear Municipal
Metric (Imperial)
Date Time (mst) Wind (kph) Vis. (km) Weather Sky Cond. Temperature (ºC) Relative Humidity Wind Chill (°C) Heat Index (°C) Pressure Precipitation (cm)
Air Dwpt 6 hour altimeter (cm) sea level (mb) 1 hr 3 hr 6 hr
Max. Min.
30 20:47 S 20 G 44 16.09 Mostly Cloudy SCT080 BKN250 38 18 31% 40 75.64 0.0
30 19:47 SW 13 16.09 Mostly Cloudy SCT080 BKN250 39 17 27% 40 75.51 0.0
30 18:47 W 19 16.09 A Few Clouds FEW080 FEW250 39 17 27% 40 75.51 0.0
30 17:47 W 19 G 28 16.09 A Few Clouds FEW080 FEW250 40 18 28% 42 75.54 0.0
30 16:47 W 19 16.09 A Few Clouds FEW080 FEW250 41 18 26% 43 75.57 0.0
30 15:47 SW 19 G 30 16.09 A Few Clouds FEW080 41 18 26% 43 75.64 0.0
30 14:47 NW 17 G 28 16.09 A Few Clouds FEW080 40 19 29% 43 75.72 0.0
30 13:47 W 19 G 30 16.09 A Few Clouds FEW080 39 19 31% 42 75.79 0.0
30 12:47 W 19 G 28 16.09 A Few Clouds FEW080 39 19 31% 42 75.87 0.0
30 11:47 S 15 16.09 A Few Clouds FEW200 38 18 31% 40 75.95 0.0
30 10:47 SW 6 16.09 A Few Clouds FEW200 37 18 33% 39 76 0.0
30 09:47 Vrbl 9 16.09 A Few Clouds FEW200 36 18 34% 37 76 0.0
30 08:47 SE 15 16.09 Partly Cloudy SCT200 34 18 39% 35 76 0.0
30 07:47 SE 11 16.09 Partly Cloudy FEW120 SCT200 32 18 43% 33 76 0.0
30 06:47 SE 15 16.09 Partly Cloudy SCT120 SCT200 31 18 46% 32 75.97 0.0
30 05:47 Vrbl 6 16.09 Mostly Cloudy SCT120 BKN250 31 19 49% 32 75.9 0.0
29 20:47 SW 13 16.09 A Few Clouds FEW075 39 16 26% 40 75.64 0.0
29 19:47 SW 19 16.09 A Few Clouds FEW075 41 15 22% 41 75.54 0.0
29 18:47 W 19 16.09 A Few Clouds FEW075 42 15 20% 42 75.49 0.0
29 17:47 W 30 16.09 A Few Clouds FEW075 43 15 19% 44 75.49 0.0
29 16:47 SW 19 G 39 16.09 A Few Clouds FEW075 43 15 19% 44 75.49 0.0
29 15:47 SW 19 G 37 16.09 A Few Clouds FEW075 44 15 18% 45 75.54 0.0
29 14:47 SW 20 G 37 16.09 A Few Clouds FEW075 43 16 21% 44 75.62 0.0
29 13:47 SW 15 G 33 16.09 A Few Clouds FEW075 43 17 22% 45 75.67 0.0
29 12:47 Vrbl 9 16.09 Partly Cloudy SCT100 41 16 23% 42 75.72 0.0
29 11:47 SW 9 16.09 A Few Clouds FEW200 41 16 23% 42 75.82 0.0
29 10:47 SW 11 16.09 A Few Clouds FEW200 38 16 27% 39 75.87 0.0
29 09:47 SW 7 16.09 A Few Clouds FEW200 38 16 27% 39 75.9 0.0
29 08:47 SW 13 16.09 A Few Clouds FEW200 36 17 32% 37 75.9 0.0
29 07:47 SW 15 16.09 A Few Clouds FEW200 36 17 32% 37 75.87 0.0
29 06:47 W 13 16.09 A Few Clouds FEW100 FEW250 34 19 41% 36 75.82 0.0
29 05:47 SW 11 16.09 A Few Clouds SCT030 FEW250 34 21 47% 37 75.77 0.0
28 20:47 Calm 16.09 A Few Clouds FEW250 40 16 24% 41 75.67 0.0
28 19:47 Calm 16.09 A Few Clouds FEW250 40 16 24% 41 75.62 0.0
28 18:47 W 9 16.09 A Few Clouds FEW250 42 16 22% 43 75.59 0.0
28 17:47 SW 17 16.09 A Few Clouds FEW250 43 16 21% 44 75.62 0.0
28 16:47 SW 20 16.09 A Few Clouds FEW250 43 16 21% 44 75.62 0.0
28 15:47 SW 9 16.09 Partly Cloudy FEW150 SCT250 42 16 22% 43 75.64 0.0
28 14:47 SW 22 16.09 Mostly Cloudy FEW150 BKN250 43 17 22% 45 75.72 0.0
28 13:47 W 15 16.09 Mostly Cloudy FEW150 BKN250 43 17 22% 45 75.79 0.0
28 12:47 Calm 16.09 Mostly Cloudy FEW150 BKN250 41 17 25% 43 75.87 0.0
28 11:47 Vrbl 6 16.09 Mostly Cloudy FEW150 BKN250 40 17 26% 41 75.95 0.0
28 10:47 Calm 16.09 Mostly Cloudy FEW150 BKN250 39 17 27% 40 76 0.0
28 09:47 Vrbl 9 16.09 Mostly Cloudy FEW150 BKN250 38 16 27% 39 75.97 0.0
28 08:47 Vrbl 9 16.09 Mostly Cloudy FEW100 BKN200 37 16 29% 37 75.97 0.0
28 07:47 Vrbl 6 16.09 Mostly Cloudy FEW100 BKN200 36 16 30% 36 75.95 0.0
28 06:47 SW 9 16.09 Mostly Cloudy SCT110 BKN200 33 16 36% 33 75.92 0.0
28 05:47 NW 11 16.09 Mostly Cloudy SCT110 BKN200 34 15 32% 34 75.84 0.0
Date Time (mst) Wind (kph) Vis. (km) Weather Sky Cond. Air Dwpt Max. Min. Relative Humidity Wind Chill (°C) Heat Index (°C) altimeter (cm) sea level (mb) 1 hr 3 hr 6 hr
6 hour
Temperature (ºC) Pressure Precipitation (cm)